[[{"header":{"parameterUnit":"m.s-1","parameterCategory":1,"la1":30.2991,"la2":30.254,"lo1":-89.0895,"lo2":-89.0444,"dy":0.0017,"dx":0.0017,"nx":28,"ny":28,"refTime":"2024-09-24T21:00:00:Z","depth":0,"parameterNumber":2,"parameterNumberName":"U-component_of_WINDS"},"data":[0,0,0,0,0,0,0,0,0,0,0,0,0,0,0,0,0,0,0,0,0,0,0,0,0,0,0,0,0,0,0,0,0,0,0,0,0,0,0,0,0,0,0,0,0,0,0,0,0,0,0,0,0,0,0,0,0,0,-1.7787,-1.7788,0,-1.7866,-1.7867,-1.7868,-1.7827,-1.7824,-1.7822,-1.782,-1.7902,-1.7906,-1.791,0,0,0,0,0,0,0,0,0,0,0,0,0,-1.76,-1.7604,-1.7787,-1.7788,-1.7789,-1.7866,-1.7867,-1.7868,-1.7827,-1.7824,-1.7822,-1.7819,-1.7901,-1.7906,-1.7911,0,0,0,0,0,0,0,0,0,0,0,0,0,-1.7681,-1.7605,-1.7787,-1.7778,-1.7778,-1.7866,-1.7867,-1.7868,-1.7827,-1.7824,-1.7821,-1.7818,-1.7899,-1.7905,-1.7911,-1.8013,0,0,-1.793,-1.7933,0,0,0,0,0,0,0,0,-1.7676,-1.7687,-1.7778,-1.7778,-1.7779,-1.7833,-1.7831,-1.7917,-1.7828,-1.7809,-1.782,-1.7817,-1.7882,-1.7889,-1.7911,-1.8017,-1.802,-1.7931,-1.7935,-1.7937,-1.7939,0,0,0,0,0,0,0,-1.7671,-1.7684,-1.7818,-1.7779,-1.778,-1.7769,-1.7777,-1.7847,-1.7862,-1.781,-1.7807,-1.7817,-1.7881,-1.7905,-1.7913,-1.8022,-1.7931,-1.7936,-1.794,-1.7942,-1.8214,-1.8217,0,0,0,0,0,0,-1.7665,-1.7679,-1.7816,-1.7821,-1.7718,-1.7775,-1.7784,-1.7819,-1.7861,-1.7864,-1.782,-1.7815,-1.7896,-1.7905,-1.7915,-1.8038,-1.7937,-1.7943,-1.7947,-1.8211,-1.8215,-1.8219,0,0,0,0,0,0,-1.7662,-1.7678,-1.7813,-1.7749,-1.7766,-1.7782,-1.7821,-1.7822,-1.7846,-1.7868,-1.7871,-1.7841,-1.7894,-1.7907,-1.7989,-1.804,-1.7946,-1.7951,-1.8207,-1.8212,-1.8217,-1.8283,0,0,0,0,0,0,-1.7656,-1.7677,-1.7716,-1.775,-1.7769,-1.7885,-1.7824,-1.7826,-1.7857,-1.7851,-1.7889,-1.7893,-1.7892,-1.798,-1.7995,-1.8047,-1.7956,-1.8202,-1.8209,-1.8215,-1.8276,-1.829,-1.8301,0,0,0,0,0,-1.765,-1.7732,-1.7718,-1.7735,-1.7818,-1.7888,-1.7899,-1.7897,-1.7861,-1.79,-1.7914,-1.7892,-1.8031,-1.7989,-1.8005,-1.806,-1.8199,-1.8207,-1.8215,-1.8271,-1.8287,-1.8301,0,0,0,0,0,0,-1.7704,-1.7736,-1.7722,-1.7817,-1.785,-1.7881,-1.7931,-1.7914,-1.7959,-1.7952,-1.7947,-1.7956,-1.8041,-1.8058,-1.801,-1.816,-1.8109,-1.8121,-1.8146,-1.8162,-1.8174,-1.8169,-1.7961,0,0,0,0,0,-1.7726,-1.778,-1.7806,-1.7887,-1.7905,-1.7915,-1.7945,-1.794,-1.7975,-1.7989,-1.8009,-1.8043,-1.8095,-1.8129,-1.8177,-1.8277,-1.8285,-1.8323,-1.8335,-1.8345,-1.8356,-1.841,-1.8427,-1.8244,-1.8244,-1.8244,0,0,-1.7774,-1.7799,-1.7833,-1.7899,-1.7924,-1.798,-1.7927,-1.7989,-1.803,-1.7998,-1.8077,-1.8093,-1.8131,-1.8222,-1.8264,-1.8239,-1.8408,-1.8355,-1.8363,-1.8369,-1.842,-1.8437,-1.8453,-1.825,-1.8249,-1.8248,0,0,-1.7891,-1.7914,-1.7985,-1.8011,-1.8049,-1.8055,-1.8072,-1.8106,-1.8115,-1.8194,-1.8171,-1.8219,-1.8308,-1.8336,-1.8362,-1.8487,-1.8467,-1.8502,-1.8569,-1.8621,-1.8636,-1.8648,-1.8694,-1.871,-1.8513,-1.8513,-1.8513,0,-1.7946,-1.803,-1.8024,-1.8087,-1.8117,-1.8089,-1.816,-1.8186,-1.8238,-1.8259,-1.823,-1.8341,-1.8364,-1.8462,-1.8492,-1.8513,-1.8533,-1.8499,-1.8634,-1.8647,-1.8659,-1.8702,-1.8719,-1.8517,-1.8516,-1.8516,-1.8516,0,-1.8096,-1.8154,-1.8207,-1.8258,-1.8293,-1.836,-1.8364,-1.84,-1.8391,-1.84,-1.848,-1.8507,-1.856,-1.8583,-1.8575,-1.8679,-1.8663,-1.8634,-1.8584,-1.868,-1.8721,-1.8737,-1.8523,-1.8521,-1.852,-1.8519,0,0,-1.8252,-1.8297,-1.8316,-1.8339,-1.8378,-1.8423,-1.8488,-1.854,-1.8571,-1.8607,-1.8662,-1.8737,-1.871,-1.8739,-1.8734,-1.878,-1.8878,-1.8746,-1.8747,-1.8771,-1.8995,-1.9017,-1.9037,-1.8864,-1.8867,-1.887,-1.8992,0,-1.8372,-1.8486,-1.8482,-1.8589,-1.8643,-1.8616,-1.8672,-1.8703,-1.8712,-1.8758,-1.8768,-1.8822,-1.8782,-1.88,-1.8844,-1.8857,-1.8923,-1.8848,-1.8916,-1.8918,-1.8909,-1.9058,-1.9082,-1.9196,-1.9007,-1.901,-1.9012,0,-1.8528,-1.8569,-1.8682,-1.8712,-1.8734,-1.8786,-1.8832,-1.8877,-1.891,-1.8913,-1.8945,-1.8932,-1.8998,-1.8944,-1.9034,-1.8983,-1.901,-1.902,-1.9025,-1.9033,-1.8973,-1.9071,-1.9232,-1.925,-1.9037,-1.9035,-1.9033,0,-1.8632,-1.8715,-1.8793,-1.8813,-1.885,-1.8887,-1.8904,-1.8934,-1.8965,-1.9005,-1.9025,-1.9072,-1.9099,-1.9135,-1.9135,-1.9096,-1.9227,-1.9173,-1.9232,-1.9232,-1.9263,-1.9262,-1.9433,-1.9278,-1.9277,-1.9277,-1.9277,0,-1.8768,-1.8838,-1.884,-1.8888,-1.8966,-1.8959,-1.9036,-1.9049,-1.9075,-1.9126,-1.9104,-1.9151,-1.9147,-1.9195,-1.9195,-1.927,-1.9282,-1.9287,-1.9286,-1.929,-1.929,-1.9309,-1.9302,-1.9282,-1.9281,-1.928,-1.9279,0,-1.8898,-1.8902,-1.8985,-1.9013,-1.9021,-1.9077,-1.9101,-1.9146,-1.9153,-1.9216,-1.9231,-1.9241,-1.9296,-1.9299,-1.9362,-1.9362,-1.9453,-1.9443,-1.9443,-1.9441,-1.9501,-1.9496,-1.9693,-1.9718,-1.9545,-1.9547,-1.9548,0,-1.8986,-1.9039,-1.9072,-1.9104,-1.9123,-1.9174,-1.9206,-1.92,-1.9234,-1.9274,-1.9315,-1.9367,-1.941,-1.9498,-1.9511,-1.9559,-1.9551,-1.9616,-1.9558,-1.956,-1.9554,-1.9551,-1.9557,-1.9629,-1.9631,-1.9632,-1.9633,0,-1.9141,-1.914,-1.9186,-1.9232,-1.927,-1.9306,-1.934,-1.9367,-1.9366,-1.9404,-1.946,-1.9492,-1.9556,-1.9609,-1.9655,-1.9672,-1.9653,-1.9651,-1.9668,-1.9673,-1.9671,-1.9674,-1.9475,-1.9647,-1.9646,-1.9645,-1.9644,-1.9644,-1.9254,-1.9299,-1.933,-1.9381,-1.9406,-1.9437,-1.9481,-1.9493,-1.9539,-1.9591,-1.9584,-1.9646,-1.9676,-1.9736,-1.9757,-1.9805,-1.9782,-1.9806,-1.9812,-1.9819,-1.9826,-1.9661,-1.9813,-1.9812,-1.9812,-1.9812,-1.9811,0,-1.9409,-1.9427,-1.9474,-1.9521,-1.9562,-1.9539,-1.9574,-1.961,-1.9665,-1.9694,-1.9735,-1.9799,-1.9849,-1.9865,-1.9914,-1.9949,-1.9941,-1.9962,-1.996,-1.9965,-1.9842,-1.9824,-1.9967,-1.9967,-1.9967,-1.9967,-1.9967,-1.9967,-1.9495,-1.9572,-1.9574,-1.9662,-1.9678,-1.9739,-1.9761,-1.979,-1.9814,-1.9886,-1.9927,-1.9937,-1.9961,-2.0011,-2.0055,-2.0059,-2.0078,-2.0103,-2.0103,-1.9989,-1.9973,-1.9958,-1.9941,-2.0107,-2.0107,-2.0221,-2.0222,-2.0223]},{"header":{"parameterUnit":"m.s-1","parameterCategory":1,"la1":30.2991,"la2":30.254,"lo1":-89.0895,"lo2":-89.0444,"dy":0.0017,"dx":0.0017,"nx":28,"ny":28,"refTime":"2024-09-24T21:00:00:Z","depth":0,"parameterNumber":3,"parameterNumberName":"V-component_of_WINDS"},"data":[0,0,0,0,0,0,0,0,0,0,0,0,0,0,0,0,0,0,0,0,0,0,0,0,0,0,0,0,0,0,0,0,0,0,0,0,0,0,0,0,0,0,0,0,0,0,0,0,0,0,0,0,0,0,0,0,0,0,-6.6918,-6.6918,0,-6.6933,-6.6933,-6.6933,-6.6816,-6.6812,-6.6809,-6.6806,-6.682,-6.6823,-6.6827,0,0,0,0,0,0,0,0,0,0,0,0,0,-6.6787,-6.679,-6.6918,-6.6918,-6.6919,-6.6933,-6.6933,-6.6933,-6.6816,-6.6812,-6.6808,-6.6804,-6.6819,-6.6823,-6.6827,0,0,0,0,0,0,0,0,0,0,0,0,0,-6.6827,-6.6791,-6.6918,-6.6862,-6.6857,-6.6933,-6.6933,-6.6933,-6.6817,-6.6812,-6.6807,-6.6803,-6.6817,-6.6822,-6.6827,-6.6957,0,0,-6.6843,-6.6845,0,0,0,0,0,0,0,0,-6.6825,-6.6832,-6.687,-6.6866,-6.6861,-6.6867,-6.6891,-6.6941,-6.6818,-6.6832,-6.6806,-6.68,-6.684,-6.6843,-6.6856,-6.6958,-6.6959,-6.6844,-6.6847,-6.6849,-6.685,0,0,0,0,0,0,0,-6.6822,-6.6831,-6.6924,-6.6871,-6.6865,-6.6835,-6.6835,-6.69,-6.6863,-6.6831,-6.6822,-6.6825,-6.6836,-6.6851,-6.6855,-6.6959,-6.6843,-6.6848,-6.6851,-6.6853,-6.7166,-6.7171,0,0,0,0,0,0,-6.6827,-6.6829,-6.6923,-6.6924,-6.683,-6.6842,-6.6842,-6.687,-6.6862,-6.6856,-6.683,-6.682,-6.6845,-6.685,-6.6856,-6.7006,-6.6849,-6.6854,-6.6857,-6.7161,-6.7167,-6.7173,0,0,0,0,0,0,-6.6825,-6.6837,-6.6923,-6.6874,-6.6883,-6.6849,-6.6882,-6.6873,-6.6888,-6.6861,-6.6854,-6.6852,-6.6841,-6.6848,-6.6933,-6.7005,-6.6856,-6.6861,-6.7155,-6.7163,-6.717,-6.7309,0,0,0,0,0,0,-6.6822,-6.6837,-6.6886,-6.6876,-6.6886,-6.7001,-6.6886,-6.6877,-6.6897,-6.6885,-6.6881,-6.6875,-6.6838,-6.6926,-6.6938,-6.7009,-6.6865,-6.7148,-6.7158,-6.7168,-6.7298,-6.732,-6.734,0,0,0,0,0,-6.6817,-6.6925,-6.689,-6.6902,-6.6948,-6.7005,-6.7011,-6.6966,-6.6904,-6.6953,-6.6935,-6.6876,-6.6995,-6.6935,-6.6948,-6.7022,-6.7143,-6.7155,-6.7167,-6.7288,-6.7316,-6.734,0,0,0,0,0,0,-6.6945,-6.6923,-6.6883,-6.6991,-6.7001,-6.6985,-6.7046,-6.6997,-6.7024,-6.7011,-6.6954,-6.6954,-6.7048,-6.7043,-6.6977,-6.7146,-6.7058,-6.7073,-6.7146,-6.7172,-6.7193,-6.7192,-6.6869,0,0,0,0,0,-6.6985,-6.7034,-6.7012,-6.711,-6.7116,-6.7081,-6.7104,-6.7069,-6.7076,-6.708,-6.7068,-6.7078,-6.7117,-6.7144,-6.7179,-6.7296,-6.7293,-6.7353,-6.7375,-6.7392,-6.7406,-6.7466,-6.7492,-6.7212,-6.7211,-6.7211,0,0,-6.707,-6.7064,-6.7098,-6.7135,-6.7138,-6.719,-6.7085,-6.7144,-6.7181,-6.7088,-6.7167,-6.7159,-6.7166,-6.7267,-6.7311,-6.7266,-6.7482,-6.7407,-6.7421,-6.7425,-6.7481,-6.7507,-6.7531,-6.722,-6.7218,-6.7217,0,0,-6.725,-6.7251,-6.7331,-6.7336,-6.7343,-6.7318,-6.7337,-6.7329,-6.732,-6.7398,-6.7329,-6.7372,-6.7442,-6.7449,-6.7462,-6.7643,-6.7588,-6.7656,-6.7766,-6.7826,-6.7848,-6.7867,-6.7931,-6.7955,-6.7669,-6.7669,-6.767,0,-6.7354,-6.7429,-6.7379,-6.7442,-6.746,-6.7378,-6.7458,-6.7465,-6.7483,-6.7497,-6.7446,-6.753,-6.7529,-6.763,-6.7674,-6.7688,-6.7707,-6.7656,-6.7849,-6.7867,-6.7885,-6.7945,-6.7969,-6.7678,-6.7677,-6.7676,-6.7675,0,-6.7556,-6.7609,-6.7673,-6.7692,-6.7716,-6.7788,-6.7748,-6.7779,-6.7741,-6.7721,-6.7801,-6.7796,-6.7828,-6.7849,-6.7813,-6.7945,-6.7917,-6.7859,-6.7769,-6.792,-6.7976,-6.7999,-6.7689,-6.7686,-6.7684,-6.7682,0,0,-6.7818,-6.7807,-6.7831,-6.7838,-6.7838,-6.7878,-6.7945,-6.7976,-6.8003,-6.8017,-6.8072,-6.8132,-6.8077,-6.8092,-6.8055,-6.8108,-6.825,-6.8043,-6.8042,-6.8081,-6.8394,-6.8438,-6.8466,-6.8214,-6.8218,-6.8222,-6.8393,0,-6.7993,-6.8108,-6.8063,-6.8181,-6.8229,-6.8151,-6.8209,-6.8215,-6.8198,-6.8235,-6.8216,-6.8259,-6.8185,-6.8193,-6.8241,-6.8223,-6.8312,-6.821,-6.8263,-6.8266,-6.8264,-6.8495,-6.8541,-6.8704,-6.8415,-6.8419,-6.8421,0,-6.8213,-6.8236,-6.8359,-6.8349,-6.8367,-6.842,-6.8444,-6.8481,-6.8486,-6.8469,-6.8485,-6.8437,-6.8501,-6.8412,-6.8499,-6.843,-6.8449,-6.8444,-6.8449,-6.8452,-6.8353,-6.8504,-6.8755,-6.8779,-6.8455,-6.8452,-6.845,0,-6.8391,-6.8452,-6.8533,-6.8541,-6.8532,-6.8571,-6.8569,-6.8569,-6.859,-6.8611,-6.8623,-6.8652,-6.8668,-6.869,-6.865,-6.8589,-6.8743,-6.865,-6.8731,-6.8732,-6.8767,-6.8765,-6.9024,-6.878,-6.878,-6.8779,-6.8779,0,-6.8591,-6.8669,-6.8613,-6.8663,-6.8747,-6.8694,-6.8779,-6.8768,-6.8769,-6.8814,-6.8748,-6.8793,-6.8737,-6.8776,-6.8745,-6.8822,-6.8829,-6.8817,-6.8808,-6.8823,-6.8825,-6.8835,-6.8823,-6.8786,-6.8784,-6.8783,-6.8782,0,-6.8804,-6.877,-6.8853,-6.8837,-6.8834,-6.8897,-6.8883,-6.8928,-6.8906,-6.8964,-6.8975,-6.894,-6.8982,-6.8945,-6.8985,-6.8964,-6.9066,-6.9041,-6.9065,-6.9057,-6.914,-6.9132,-6.9414,-6.9448,-6.9183,-6.9185,-6.9188,0,-6.8934,-6.8992,-6.8982,-6.9008,-6.901,-6.9052,-6.9073,-6.9023,-6.9047,-6.9056,-6.91,-6.9136,-6.9162,-6.9233,-6.9211,-6.9241,-6.9216,-6.9313,-6.922,-6.9233,-6.9217,-6.9214,-6.9219,-6.9332,-6.9335,-6.9337,-6.9339,0,-6.9168,-6.9148,-6.918,-6.9207,-6.9234,-6.9252,-6.9265,-6.929,-6.9239,-6.9269,-6.9311,-6.9332,-6.9372,-6.9409,-6.9432,-6.9428,-6.9376,-6.9369,-6.9389,-6.9405,-6.9416,-6.941,-6.9115,-6.9362,-6.936,-6.9358,-6.9357,-6.9356,-6.9344,-6.9391,-6.9391,-6.9429,-6.9433,-6.9447,-6.9488,-6.947,-6.9504,-6.9533,-6.9501,-6.9552,-6.9554,-6.9579,-6.9582,-6.9621,-6.958,-6.961,-6.9617,-6.9625,-6.9637,-6.941,-6.9625,-6.9624,-6.9624,-6.9623,-6.9623,0,-6.9574,-6.9569,-6.9605,-6.9625,-6.9654,-6.9601,-6.9613,-6.9641,-6.9687,-6.9692,-6.9719,-6.9767,-6.9802,-6.9782,-6.9812,-6.9847,-6.9823,-6.9856,-6.9853,-6.9853,-6.9672,-6.9651,-6.9875,-6.9875,-6.9875,-6.9875,-6.9874,-6.9874,-6.9697,-6.9774,-6.9753,-6.9831,-6.9825,-6.9874,-6.9885,-6.9897,-6.9901,-6.9957,-6.9986,-6.9972,-6.9968,-6.9996,-7.0026,-7.0019,-7.0033,-7.0075,-7.006,-6.9891,-6.9866,-6.9842,-6.9823,-7.0078,-7.0079,-7.0237,-7.0239,-7.024]}]]